User: anonymous   Login
Location: Unspecified
(0.0000°N, 0.0000°E)
Time: 16:13:29
(UTC+00:00)
Language:

CUBESAT XI-V - Orbit

View from above orbital plane
View from above orbital plane
View from above satellite
View from above satellite

Ground track
Ground track

The orbit data is extracted from the following two-line orbital elements,

1 28895U 05043F   19145.92332784 +.00000098 +00000-0 +27719-4 0  9999
2 28895 097.9558 289.4741 0018107 069.0245 291.2893 14.63662295723779
Epoch (UTC): 25 May 2019 22:09:35
Eccentricity: 0.0018107
inclination: 97.9558°
perigee height: 668 km
apogee height: 694 km
right ascension of ascending node: 289.4741°
argument of perigee: 69.0245°
revolutions per day: 14.63662295
mean anomaly at epoch: 291.2893°
orbit number at epoch: 72377

The dashed part of the orbit path shows where the satellite is in the earth's shadow,  

DLR